• MPC Preparation (Info)

  • MPEC 2014-W131: 2012 UV177

    The following Minor Planet Electronic Circular may be linked-to from your own Web pages, but must not otherwise be redistributed electronically.

    A form allowing access to any MPEC is at the bottom of this page.


    Read MPEC 2014-W130 Read MPEC 2014-W132


    M.P.E.C. 2014-W131                               Issued 2014 Nov. 27, 21:58 UT
    
         The Minor Planet Electronic Circulars contain information on unusual
             minor planets and routine data on comets.  They are published
       on behalf of Commission 20 of the International Astronomical Union by the
              Minor Planet Center, Smithsonian Astrophysical Observatory,
                              Cambridge, MA 02138, U.S.A.
    
                 Prepared using the Tamkin Foundation Computer Network
    
                                  MPC@CFA.HARVARD.EDU
                URL https://www.minorplanetcenter.net/    ISSN 1523-6714
    
                                      2012 UV177
    
    Observations:
         K12UH7V ~C2011 09 01.43190 01 27 49.778+28 32 13.61         24.2 rLEW131568
         K12UH7V ~C2011 09 01.47721 01 27 49.571+28 32 13.90         23.9 rLEW131568
         K12UH7V ~C2011 09 01.51985 01 27 49.394+28 32 14.09         24.3 rLEW131568
         K12UH7V ~C2011 09 05.45977 01 27 31.115+28 32 14.72         23.6 rLEW131568
         K12UH7V ~C2011 11 24.31930 01 19 08.144+27 45 03.29         23.7 rLEW131568
         K12UH7V ~C2011 11 24.33787 01 19 08.048+27 45 02.24         23.6 rLEW131568
         K12UH7V ~C2011 11 26.43627 01 18 57.913+27 43 05.11         23.8 rLEW131568
         K12UH7V ~C2011 11 29.32442 01 18 44.773+27 40 24.09         23.7 rLEW131568
         K12UH7V ~C2011 12 01.34208 01 18 36.141+27 38 32.01         24.0 rLEW131568
         K12UH7V ~C2012 01 28.28632 01 18 23.889+26 57 43.63         24.3 rLEW131568
         K12UH7V ~C2012 02 24.23244 01 20 55.516+26 54 06.91         23.9 rLEW131568
         K12UH7V ~C2012 08 23.57612 01 38 41.330+28 56 04.34               LEW131568
         K12UH7V ~C2012 08 28.45900 01 38 24.300+28 56 51.55         24.0 rLEW131568
         K12UH7V ~C2012 09 12.38956 01 37 15.614+28 56 52.06         24.1 rLEW131568
         K12UH7V ~C2012 09 14.42586 01 37 04.493+28 56 35.13         23.9 rLEW131568
         K12UH7V ~C2012 10 19.36449 01 33 14.264+28 41 39.53         23.9 rLEW131568
         K12UH7V ~C2012 10 19.40727 01 33 13.958+28 41 37.67         23.7 rLEW131568
         K12UH7V*~C2012 10 20.35652 01 33 07.214+28 40 59.12         23.8 rLEW131568
         K12UH7V ~C2012 10 20.39499 01 33 06.942+28 40 57.49         23.6 rLEW131568
         K12UH7V ~C2012 10 20.43389 01 33 06.660+28 40 55.90         23.6 rLEW131568
         K12UH7V ~C2012 10 21.41799 01 32 59.679+28 40 15.12         23.7 rLEW131568
         K12UH7V ~C2012 11 14.35891 01 30 19.275+28 20 55.40         24.1 rLEW131568
         K12UH7V ~C2013 01 14.22823 01 27 43.631+27 30 50.46         24.1 rLEW131568
         K12UH7V ~C2013 01 14.24065 01 27 43.664+27 30 50.01         23.9 rLEW131568
         K12UH7V ~C2013 02 03.30644 01 28 46.418+27 22 14.12         23.9 rLEW131568
         K12UH7V ~C2013 02 04.22689 01 28 50.640+27 21 59.32         23.7 rLEW131568
         K12UH7V ~C2013 02 06.25798 01 29 00.358+27 21 28.94               LEW131568
         K12UH7V ~C2013 02 09.25615 01 29 15.668+27 20 51.11         24.1 rLEW131568
         K12UH7V ~C2013 02 14.25470 01 29 43.696+27 20 07.68         23.7 rLEW131568
         K12UH7V ~C2013 02 16.22184 01 29 55.558+27 19 57.02         23.7 rLEW131568
    
    Observer details:
    568 Mauna Kea.  Observers M. Alexandersen, J. Kavelaars, B. Gladman.
        Measurers M. Alexandersen, J. Kavelaars, J.-M. Petit, S. Gwyn.  3.5-m
        Canada-France-Hawaii Telescope + CCD.
    
    Orbital elements:
    2012 UV177
    Epoch 2014 Dec. 9.0 TT = JDT 2457000.5                  MPC
    M 292.93399              (2000.0)            P               Q
    n   0.00598852     Peri.  204.56841     -0.31976927     -0.87870941
    a  30.0323727      Node   265.72577     +0.91745335     -0.19370409
    e   0.0741481      Incl.   20.81882     +0.23670018     -0.43628947
    P 164.58           H    9.2           G   0.15           U   2
    Residuals in seconds of arc
    110901 568  0.0   0.2-    120224 568  0.1+  0.1+    121021 568  0.0   0.0
    110901 568  0.0   0.1-    120823 568  0.1+  0.2+    121114 568  0.0   0.1-
    110901 568  0.2+  0.0     120828 568  0.0   0.2+    130114 568  0.1-  0.0
    110905 568  0.0   0.1-    120912 568  0.1-  0.0     130114 568  0.1+  0.0
    111124 568  0.0   0.0     120914 568  0.3-  0.0     130203 568  0.0   0.0
    111124 568  0.1-  0.0     121019 568  0.0   0.1+    130204 568  0.0   0.1+
    111126 568  0.1-  0.0     121019 568  0.1+  0.1-    130206 568  0.1+  0.0
    111129 568  0.0   0.0     121020 568  0.1-  0.0     130209 568  0.1+  0.2-
    111201 568  0.0   0.1+    121020 568  0.0   0.0     130214 568  0.0   0.0
    120128 568  0.0   0.1-    121020 568  0.0   0.0     130216 568  0.1-  0.1-
    
    Ephemeris:
    2012 UV177               a,e,i = 30.03, 0.07, 21                 q = 27.806
    Date    TT    R. A. (2000) Decl.     Delta      r     Elong.  Phase     V
    2014 10 28    01 53 32.1 +29 21 04  28.3670 29.3200   163.3     0.6    23.9
    ...
    2014 11 12    01 51 46.8 +29 09 35  28.3893 29.3166   159.2     0.7    23.9
    ...
    2014 11 20    01 50 55.0 +29 02 47  28.4278 29.3148   153.4     0.9    23.9
    ...
    2014 11 26    01 50 19.4 +28 57 31  28.4684 29.3135   148.4     1.0    24.0
    2014 11 27    01 50 13.7 +28 56 38  28.4761 29.3133   147.5     1.0    24.0
    2014 11 28    01 50 08.2 +28 55 44  28.4841 29.3130   146.6     1.1    24.0
    ...
    2014 12 04    01 49 37.1 +28 50 23  28.5372 29.3117   141.2     1.2    24.0
    ...
    2014 12 12    01 49 01.8 +28 43 16  28.6213 29.3099   133.7     1.4    24.0
    ...
    2014 12 27    01 48 17.6 +28 30 35  28.8145 29.3065   119.2     1.7    24.0
    
         This 1:1 Neptune mean-motion resonant object was detected in a
    characterised survey.  Characterisation data and other information will be
    available from the discoverers after acceptance of a journal paper detailing
    the survey.  Dynamical classifications are based on a 10 Myr integration of
    the nominal orbit as well as the two extremal semi-major axis orbits compatible
    with the astrometry.
    
    Gareth V. Williams           (C) Copyright 2014 MPC           M.P.E.C. 2014-W131
    

    Read MPEC 2014-W130 Read MPEC 2014-W132


    MPEC number:

    Enter an MPEC number in one of the following forms:

    • 1997-B01 (the full form)
    • J97B01 (the packed version of the full form)
    • B01 (the abbreviated form)